COSMOS 1275 DEB, 42192

Orbit data source: Space-Track

COSMOS 1275 DEB, 42192 is space debris in LEO originally from a launch on Thu, 04 Jun 1981 UTC launched from the Plesetsk Missile And Space Complex (PKMTR). Debris objects in space refer to the collection of defunct objects orbiting the Earth. Examples of debris include non-operational satellites, rocket bodies, and fragments generated from explosions, collisions, or faulty payload assembly.

Loading next visibility...
Identifier
42192, 1981-053TG
Orbit
LEO
Country
Flag of CISCIS
Related business
Manufacturer
Unknown
Mission
Spacecraft
Bus & Motor
Unknown
Mass
Unknown
Launch date (UTC)
1981-06-04 (45 years ago)
Launch vehicle
Unknown
Launch site
Plesetsk Missile And Space Complex (PKMTR)
Object type
Payload
Rocket body
Debris
Shape & HBR
Unknown shape, 0.1 m
Radar Cross Section
Medium (>0.1 m² and <1 m²)

Expand to show TLE details & history
Last TLE update: 1 year ago

TLE from 1 year ago
0 COSMOS 1275 DEB
1 42192U 81053TG  25155.95672212  .00001901  00000-0  18835-2 0  9995
2 42192  83.0984  40.4348 0126565 162.2331 198.3313 13.74417240576120
Epoch: 2025-06-04T22:57Z
TLE epoch observation values (Epoch: 2025-06-04T22:57:40.791Z)
Latitude
-0°
Longitude
162.38258°
Altitude
1,075.238 km
Speed
7.27 km/s
True Right ascension
02h 41m 44s
True Declination
0° 00' 00"
Sunlit
Object was in daylight at epoch
Visualization orbit readout
Latitude
Unknown
Longitude
Unknown
Altitude
Unknown
Speed
Unknown
Apparent Right ascension
Unknown
Apparent Declination
Unknown
Sunlit
N/A
Visualization observer readout
Local Sidereal Time
18:42:32
Azimuth
Unknown
Elevation
Unknown
Doppler factor
Unknown
Orbital elements
Apogee altitude
1,074.038 km
Perigee altitude
887.758 km
Semi-major axis
7,359.035 km
Eccentricity
0.01266
Inclination
83.0984°
RAAN
40.4348°
Arg. of periapsis
162.2331°
True anomaly
197.88191°
Mean anomaly
198.3313°
Eccentric anomaly
198.10594°
Mean motion
3.43805 °/min
Orbital period
104.71 mins
BSTAR
0.0018835
Loading maneuver chart data...
Computing Atmospheric mass density...
Loading historical data...
Loading historical data...
Loading historical data...
Loading historical data...
Loading historical data...
Loading historical data...
Loading historical data...

Documentation

Showing up to 5 results
|